Rome, NY

10:19 PM EDT on May 27, 2017 (GMT -0400)
Griffiss

Weather History for KRME - December, 2013

Change the Weather History Date:

Monday, December 23, 2013

  Actual Average Record
Temperature  
Mean Temperature 34 °F -  
Max Temperature 39 °F 33 °F 57 °F (1990)
Min Temperature 26 °F 20 °F -15 °F (1989)
Degree Days  
Heating Degree Days 32    
Moisture  
Dew Point 33 °F    
Average Humidity 90    
Maximum Humidity 97    
Minimum Humidity 72    
Precipitation  
Precipitation 0.10 in - - ()
Sea Level Pressure  
Sea Level Pressure 30.09 in    
Wind  
Wind Speed 5 mph (WNW)    
Max Wind Speed 15 mph    
Max Gust Speed 22 mph    
Visibility 6 miles    
Events Rain , Snow    
Averages and records for this station are not official NWS values.
T = Trace of Precipitation, MM = Missing Value Source: NWS Daily Summary

Daily Weather History Graph

Daily Weather History Graph

Search for Another Location

Airport or City:

Trip Planner

Search our weather history database for the weather conditions in past years. The results will help you decide how hot, cold, wet, or windy it might be!

Date:

Astronomy

Dec. 23, 2013 Rise Set
Actual Time 7:31 AM EST 4:30 PM EST
Civil Twilight 6:58 AM EST 5:02 PM EST
Nautical Twilight 6:22 AM EST 5:38 PM EST
Astronomical Twilight 5:48 AM EST 6:13 PM EST
Moon 10:47 PM EST (12/23) 10:46 AM EST (12/23)
Length of Visible Light 10h 03m
Length of Day
8h 58m
Waning Gibbous, 68% of the Moon is Illuminated
Dec 23
Waning Gibbous
Dec 25
Last Quarter
Jan 1
New
Jan 7
First Quarter
Jan 15
Full

Hourly Weather History & Observations

Time (EST) Temp. Windchill Dew Point Humidity Pressure Visibility Wind Dir Wind Speed Gust Speed Precip Events Conditions
12:53 AM 39.0 °F - 37.9 °F 96% 30.00 in 6.0 mi Calm Calm - N/A   Overcast
1:53 AM 39.0 °F - 37.9 °F 96% 30.01 in 5.0 mi Calm Calm - N/A   Overcast
2:53 AM 39.0 °F 36.8 °F 37.0 °F 93% 30.02 in 5.0 mi ESE 3.5 mph - N/A   Overcast
3:53 AM 37.9 °F 33.5 °F 37.0 °F 97% 30.03 in 4.0 mi SSE 5.8 mph - 0.01 in Rain Light Rain
4:15 AM 39.0 °F 35.7 °F 37.0 °F 93% 30.02 in 6.0 mi ESE 4.6 mph - 0.01 in Rain Light Rain
4:53 AM 39.0 °F - 37.0 °F 93% 30.02 in 5.0 mi Calm Calm - 0.02 in Rain Light Rain
5:33 AM 39.0 °F 35.7 °F 37.0 °F 93% 29.99 in 4.0 mi East 4.6 mph - 0.00 in   Overcast
5:53 AM 39.0 °F - 37.0 °F 93% 30.02 in 4.0 mi Calm Calm - 0.00 in   Overcast
6:20 AM 37.9 °F 34.4 °F 37.0 °F 97% 30.00 in 2.5 mi ESE 4.6 mph - N/A   Overcast
6:53 AM 39.0 °F 36.8 °F 37.0 °F 93% 30.02 in 3.0 mi ESE 3.5 mph - 0.00 in Rain Light Rain
7:31 AM 39.0 °F 35.7 °F 37.0 °F 93% 30.02 in 4.0 mi ESE 4.6 mph - 0.01 in Rain Light Rain
7:53 AM 39.0 °F 35.7 °F 37.0 °F 93% 30.03 in 3.0 mi ESE 4.6 mph - 0.01 in Rain Light Rain
8:06 AM 39.0 °F 36.8 °F 37.9 °F 96% 30.03 in 2.0 mi ESE 3.5 mph - 0.01 in Rain Light Rain
8:16 AM 39.0 °F - 37.9 °F 96% 30.03 in 2.5 mi Calm Calm - 0.01 in Rain Light Rain
8:53 AM 39.0 °F - 37.9 °F 96% 30.04 in 3.0 mi Calm Calm - 0.01 in Rain Light Rain
9:16 AM 39.9 °F - 37.9 °F 93% 30.03 in 2.5 mi Calm Calm - 0.01 in Rain Light Rain
9:35 AM 39.9 °F - 37.9 °F 93% 30.03 in 3.0 mi Calm Calm - 0.01 in Rain Light Rain
9:53 AM 39.9 °F - 37.9 °F 93% 30.05 in 4.0 mi Calm Calm - 0.01 in Rain Light Rain
10:39 AM 39.9 °F 36.7 °F 37.9 °F 93% 30.04 in 2.5 mi NNW 4.6 mph - 0.01 in Rain Light Rain
10:49 AM 39.2 °F 34.2 °F 37.4 °F 93% 30.04 in 5.0 mi NW 6.9 mph - 0.01 in Rain Light Rain
10:53 AM 39.9 °F 33.4 °F 37.9 °F 93% 30.05 in 8.0 mi NW 10.4 mph - 0.01 in Rain Light Rain
11:21 AM 39.0 °F 30.6 °F 36.0 °F 89% 30.04 in 8.0 mi WNW 15.0 mph - 0.00 in Rain Light Rain
11:29 AM 37.9 °F 29.6 °F 35.1 °F 89% 30.05 in 9.0 mi WNW 13.8 mph 21.9 mph 0.00 in Rain Light Rain
11:53 AM 37.9 °F 30.5 °F 35.1 °F 89% 30.05 in 10.0 mi WNW 11.5 mph - 0.00 in Rain Light Rain
12:22 PM 37.9 °F 32.1 °F 35.1 °F 89% 30.04 in 10.0 mi West 8.1 mph - 0.00 in   Overcast
12:37 PM 37.9 °F 32.1 °F 35.1 °F 89% 30.06 in 10.0 mi West 8.1 mph - 0.00 in   Overcast
12:48 PM 37.4 °F 32.1 °F 35.6 °F 93% 30.05 in 10.0 mi WSW 6.9 mph - 0.00 in   Overcast
12:53 PM 37.9 °F 32.1 °F 35.1 °F 89% 30.06 in 10.0 mi WSW 8.1 mph - 0.00 in   Overcast
1:39 PM 37.0 °F 31.0 °F 35.1 °F 93% 30.06 in 4.0 mi West 8.1 mph - 0.01 in Rain Light Rain
1:53 PM 37.0 °F 31.0 °F 35.1 °F 93% 30.07 in 8.0 mi West 8.1 mph - 0.01 in Rain Light Rain
2:53 PM 37.0 °F 28.5 °F 34.0 °F 89% 30.09 in 4.0 mi West 13.8 mph - 0.00 in Rain Light Rain
3:18 PM 36.0 °F 29.0 °F 33.1 °F 89% 30.09 in 10.0 mi West 9.2 mph - 0.01 in   Overcast
3:37 PM 36.0 °F 27.5 °F 33.1 °F 89% 30.11 in 10.0 mi WNW 12.7 mph - 0.01 in Rain Light Rain
3:53 PM 35.1 °F 26.9 °F 32.0 °F 89% 30.12 in 10.0 mi WNW 11.5 mph - 0.01 in   Overcast
4:53 PM 33.1 °F 23.4 °F 30.0 °F 89% 30.16 in 10.0 mi WNW 13.8 mph - N/A   Overcast
5:53 PM 32.0 °F 22.1 °F 28.0 °F 85% 30.19 in 10.0 mi West 13.8 mph - N/A   Overcast
6:23 PM 32.0 °F 23.0 °F 28.0 °F 85% 30.19 in 10.0 mi WNW 11.5 mph - N/A   Overcast
6:53 PM 30.9 °F 24.3 °F 28.0 °F 89% 30.19 in 7.0 mi WNW 6.9 mph - 0.00 in Snow Light Snow
7:06 PM 30.9 °F 25.2 °F 28.0 °F 89% 30.19 in 2.5 mi West 5.8 mph - 0.00 in Snow Light Snow
7:24 PM 30.9 °F 25.2 °F 28.0 °F 89% 30.19 in 3.0 mi West 5.8 mph - 0.01 in Snow Light Snow
7:42 PM 30.9 °F 24.3 °F 28.0 °F 89% 30.20 in 8.0 mi West 6.9 mph - 0.01 in Snow Light Snow
7:51 PM 30.2 °F 22.6 °F 26.6 °F 86% 30.20 in 6.0 mi West 8.1 mph - 0.01 in Snow Light Snow
7:53 PM 30.9 °F 21.7 °F 27.0 °F 85% 30.21 in 6.0 mi WNW 11.5 mph - 0.01 in Snow Light Snow
8:13 PM 30.9 °F 22.2 °F 26.1 °F 82% 30.21 in 9.0 mi WNW 10.4 mph - 0.00 in   Overcast
8:53 PM 30.0 °F 20.5 °F 25.0 °F 82% 30.22 in 7.0 mi NW 11.5 mph - 0.00 in Snow Light Snow
9:29 PM 28.9 °F 19.8 °F 24.1 °F 82% 30.22 in 8.0 mi WNW 10.4 mph - 0.00 in Snow Light Snow
9:53 PM 28.9 °F 19.8 °F 24.1 °F 82% 30.24 in 10.0 mi WNW 10.4 mph - 0.00 in   Overcast
10:53 PM 28.0 °F 17.0 °F 19.9 °F 72% 30.25 in 10.0 mi NW 13.8 mph - N/A   Overcast
11:53 PM 26.1 °F 16.2 °F 19.0 °F 75% 30.25 in 10.0 mi NW 10.4 mph - N/A   Overcast